This is the latest recevied weather packets stored in our database for station/object EA5DFV. If no packets are shown the sender has not sent any weather packets the latest 10 day(s).
| Time | Temp. | Humidity | Pressure | Rain* | Wind** | Luminosity | Snow |
|---|---|---|---|---|---|---|---|
| 1777489104 | 18.33° C | 80% | 1011 hPa | 0 mm | - | 0 W/m² | - |
| 1777488815 | 18.89° C | 80% | 1011 hPa | 0 mm | - | 0 W/m² | - |
| 1777488505 | 18.89° C | 79% | 1010.8 hPa | 0 mm | - | 0 W/m² | - |
| 1777488216 | 18.89° C | 79% | 1010.8 hPa | 0 mm | - | 5 W/m² | - |
| 1777487907 | 18.89° C | 78% | 1010.5 hPa | 0 mm | - | 7 W/m² | - |
| 1777487617 | 18.89° C | 78% | 1010.4 hPa | 0 mm | - | 9 W/m² | - |
| 1777487315 | 19.44° C | 77% | 1010.5 hPa | 0 mm | - | 12 W/m² | - |
| 1777487008 | 19.44° C | 77% | 1010.4 hPa | 0 mm | - | 12 W/m² | - |
| 1777486719 | 19.44° C | 77% | 1010.3 hPa | 0 mm | - | 12 W/m² | - |
| 1777486119 | 20° C | 76% | 1010.3 hPa | 0 mm | - | 14 W/m² | - |
| 1777485809 | 20° C | 75% | 1010.4 hPa | 0 mm | - | 23 W/m² | - |
| 1777485505 | 20° C | 74% | 1010.4 hPa | 0 mm | - | 39 W/m² | - |
| 1777485215 | 20.56° C | 74% | 1010.3 hPa | 0 mm | - | 46 W/m² | - |
| 1777484913 | 20.56° C | 73% | 1010.3 hPa | 0 mm | - | 56 W/m² | - |
| 1777484603 | 21.11° C | 71% | 1010.2 hPa | 0 mm | - | 62 W/m² | - |
| 1777484314 | 21.11° C | 69% | 1010.3 hPa | 0 mm | - | 69 W/m² | - |
| 1777484004 | 21.11° C | 69% | 1010.4 hPa | 0 mm | - | 76 W/m² | - |
| 1777483715 | 21.67° C | 68% | 1010.2 hPa | 0 mm | - | 162 W/m² | - |
| 1777483407 | 21.67° C | 66% | 1010.3 hPa | 0 mm | - | 144 W/m² | - |
| 1777483101 | 22.22° C | 63% | 1010.3 hPa | 0 mm | - | 213 W/m² | - |
| 1777482814 | 22.22° C | 61% | 1010.3 hPa | 0 mm | - | 230 W/m² | - |
| 1777482509 | 22.22° C | 59% | 1010.2 hPa | 0 mm | - | 248 W/m² | - |
| 1777482202 | 22.22° C | 57% | 1010.1 hPa | 0 mm | - | 269 W/m² | - |
| 1777481913 | 22.78° C | 53% | 1009.9 hPa | 0 mm | - | 285 W/m² | - |
| 1777481603 | 22.78° C | 51% | 1010 hPa | 0 mm | - | 302 W/m² | - |
* Rain latest hour (hover to see other rain measurements)
** Current wind speed in m/s (hover to see current wind gust speed)